Time,TemperatureF,DewpointF,PressureIn,WindDirection,WindDirectionDegrees,WindSpeedMPH,WindSpeedGustMPH,Humidity,HourlyPrecipIn,Conditions,Clouds,dailyrainin,SoftwareType,DateUTC
2013-10-17 00:43:00,47.0,44.0,-100.00,East,90,1.0,2.0,90,-99.99,,,-99.99,,2013-10-17 07:43:00,
2013-10-17 00:52:00,46.0,44.0,-100.00,East,90,1.0,3.0,92,-99.99,,,-99.99,,2013-10-17 07:52:00,
2013-10-17 01:02:00,46.0,44.0,-100.00,East,90,1.0,3.0,92,-99.99,,,-99.99,,2013-10-17 08:02:00,
2013-10-17 01:21:00,45.0,44.0,-100.00,East,90,1.0,2.0,93,-99.99,,,-99.99,,2013-10-17 08:21:00,
2013-10-17 01:42:00,45.0,43.0,-100.00,East,90,1.0,4.0,93,-99.99,,,-99.99,,2013-10-17 08:42:00,
2013-10-17 02:21:00,45.0,43.0,-100.00,NE,45,1.0,3.0,93,-99.99,,,-99.99,,2013-10-17 09:21:00,
2013-10-17 02:33:00,45.0,43.0,-100.00,NE,45,1.0,3.0,93,-99.99,,,-99.99,,2013-10-17 09:33:00,
2013-10-17 03:42:00,44.0,42.0,-100.00,East,90,1.0,3.0,94,-99.99,,,-99.99,,2013-10-17 10:42:00,
2013-10-17 04:42:00,43.0,42.0,-100.00,SE,135,1.0,3.0,95,-99.99,,,-99.99,,2013-10-17 11:42:00,
2013-10-17 05:12:00,43.0,42.0,-100.00,East,90,1.0,1.0,96,-99.99,,,-99.99,,2013-10-17 12:12:00,
2013-10-17 05:42:00,43.0,42.0,-100.00,East,90,1.0,3.0,96,-99.99,,,-99.99,,2013-10-17 12:42:00,
2013-10-17 06:42:00,42.0,41.0,-100.00,South,180,1.0,3.0,96,-99.99,,,-99.99,,2013-10-17 13:42:00,
2013-10-17 10:12:00,46.0,43.0,-100.00,SE,135,1.0,5.0,89,-99.99,,,-99.99,,2013-10-17 17:12:00,
2013-10-17 10:21:00,47.0,43.0,-100.00,SW,225,3.0,5.0,86,-99.99,,,-99.99,,2013-10-17 17:21:00,
2013-10-17 10:33:00,47.0,43.0,-100.00,SW,225,3.0,5.0,86,-99.99,,,-99.99,,2013-10-17 17:33:00,
2013-10-17 12:42:00,58.0,44.0,-100.00,SW,225,3.0,6.0,59,-99.99,,,-99.99,,2013-10-17 19:42:00,
2013-10-17 13:42:00,62.0,44.0,-100.00,SW,225,3.0,6.0,52,-99.99,,,-99.99,,2013-10-17 20:42:00,
2013-10-17 14:44:00,65.0,46.0,-100.00,South,180,3.0,8.0,49,-99.99,,,-99.99,,2013-10-17 21:44:00,
2013-10-17 16:13:00,67.0,42.0,-100.00,East,90,3.0,8.0,40,-99.99,,,-99.99,,2013-10-17 23:13:00,
2013-10-17 16:53:00,66.0,46.0,-100.00,East,90,2.0,5.0,48,-99.99,,,-99.99,,2013-10-17 23:53:00,
2013-10-17 17:12:00,66.0,46.0,-100.00,SE,135,2.0,5.0,49,-99.99,,,-99.99,,2013-10-18 00:12:00,
2013-10-17 17:42:00,63.0,49.0,-100.00,East,90,1.0,3.0,61,-99.99,,,-99.99,,2013-10-18 00:42:00,
2013-10-17 17:53:00,61.0,50.0,-100.00,East,90,2.0,4.0,66,-99.99,,,-99.99,,2013-10-18 00:53:00,
2013-10-17 18:12:00,60.0,50.0,-100.00,East,90,2.0,4.0,69,-99.99,,,-99.99,,2013-10-18 01:12:00,
2013-10-17 18:52:00,56.0,50.0,-100.00,SE,135,1.0,3.0,78,-99.99,,,-99.99,,2013-10-18 01:52:00,
2013-10-17 19:02:00,56.0,50.0,-100.00,SE,135,1.0,3.0,78,-99.99,,,-99.99,,2013-10-18 02:02:00,
2013-10-17 19:42:00,53.0,48.0,-100.00,East,90,1.0,3.0,82,-99.99,,,-99.99,,2013-10-18 02:42:00,
2013-10-17 20:11:00,54.0,47.0,-100.00,SE,135,2.0,3.0,77,-99.99,,,-99.99,,2013-10-18 03:11:00,
2013-10-17 23:42:00,52.0,43.0,-100.00,SW,225,1.0,4.0,70,-99.99,,,-99.99,,2013-10-18 06:42:00,